Location: Lynch Observatory
(39.9540°N, 75.1861°W)
Time: 14:02:18
(UTC-05:00)

ISS - Visible Passes

Search period start: 14 December 2017 00:00
Search period end: 24 December 2017 00:00
Orbit: 403 x 406 km, 51.6° (Epoch: 15 December)

Date Brightness Start Highest point End Pass type
(mag) Time Alt. Az. Time Alt. Az. Time Alt. Az.
14 Dec -3.2 17:24:40 10° NW 17:27:47 37° NNE 17:30:36 12° E visible
14 Dec -1.2 19:01:26 10° WNW 19:03:20 21° WSW 19:03:20 21° WSW visible
15 Dec -2.8 18:08:51 10° WNW 18:12:01 46° SW 18:14:27 15° SSE visible
16 Dec -3.9 17:16:32 10° NW 17:19:50 86° NE 17:23:06 10° SE visible
17 Dec -0.9 18:01:24 10° W 18:03:47 19° SW 18:06:09 10° S visible
18 Dec -2.0 17:08:37 10° WNW 17:11:41 36° SW 17:14:43 10° SSE visible
